Location: Asheville, NC
(35.6000°N, 82.5500°W)
Time: 14:25:11
(UTC-04:00)

SRMSAT - Pass Details

Date: 11 January 2018
Orbit: 848 x 866 km, 20.0° (Epoch: 15 July)

Event Time Altitude Azimuth Distance (km) Brightness Sun altitude
Rises 19:44:03 0° 239° (WSW) 3,422 ? -25.4°
Reaches altitude 10° 19:47:31 10° 220° (SW) 2,483 ? -26.1°
Maximum altitude 19:51:15 17° 181° (S) 2,022 ? -26.8°
Enters shadow 19:52:42 16° 164° (SSE) 2,096 ? -27.1°
